Temperature
10 10 10 10 10 10 11 11 11 11 10 10 10 10 10 10 10 10 10 10 10 10 10 10 10 10 10 10 10 11 10 10 10 10 10 10 10 10 10 10 10 10 10
9 10 10 10 10 10 10 10 10 10 10 10 10 10 10 10 10 10 10 10 10 10 10 10 10 10 10 10 10 10 10 10 9 9 8 9 9 9 10 10 10 10 10
9 9 10 10 10 10 10 10 10 10 10 10 10 10 9 9 10 10 10 10 9 9 10 10 10 10 9 9 9 9 9 9 9 8 8 8 9 8 8 9 9 9 9
9 9 10 10 10 10 10 10 10 10 10 9 9 9 9 9 9 9 9 9 9 9 9 9 9 9 9 9 9 9 9 8 8 8 8 8 7 7 8 8 8 8 8
9 9 9 10 10 10 10 10 10 9 9 9 9 9 9 9 9 9 9 9 9 9 9 9 9 8 8 8 8 8 8 7 7 7 7 7 7 6 6 7 7 7 7
9 9 9 9 10 10 9 9 9 9 9 9 9 9 8 8 8 8 8 8 8 8 8 8 8 8 8 8 8 7 7 7 7 7 6 6 6 6 6 6 6 6 6
8 9 9 9 9 9 9 9 9 9 9 9 8 8 8 8 8 8 8 8 8 8 8 7 7 7 7 7 7 7 7 6 6 6 6 6 6 5 5 5 5 5 5
8 8 9 9 9 9 9 9 9 9 8 8 8 8 8 8 8 8 7 7 7 7 7 7 7 7 7 7 6 6 6 6 6 6 5 5 5 5 5 4 4 4 4
8 8 8 9 9 9 9 9 9 8 8 8 8 8 7 7 7 7 7 7 7 7 7 6 6 6 6 6 6 6 5 5 5 5 5 5 5 5 4 4 4 4 4
8 8 8 8 8 9 9 8 8 8 8 8 8 7 7 7 7 7 6 6 6 6 6 6 6 6 6 5 5 5 5 5 5 5 4 4 4 4 4 4 3 3 3
8 8 8 8 8 8 8 8 8 8 8 7 7 7 7 7 6 6 6 6 6 6 5 5 5 5 5 5 5 4 4 4 4 4 4 4 4 3 3 3 3 3 2
7 8 8 8 8 8 8 8 7 7 7 7 7 7 6 6 6 6 6 6 5 5 5 5 5 5 4 4 4 4 4 4 4 4 3 3 3 3 3 3 2 2 2
7 7 7 7 7 7 7 7 7 7 6 6 6 6 6 6 6 5 5 5 5 5 4 4 4 4 4 4 4 4 3 3 3 3 3 3 2 2 2 2 2 2 2
7 7 7 7 7 7 7 7 6 6 6 6 6 5 5 5 5 5 5 4 4 4 4 4 4 4 3 3 3 3 3 3 3 3 2 2 2 2 2 1 1 1 1
6 6 6 6 6 6 6 6 6 6 5 5 5 5 5 5 4 4 4 4 4 4 4 3 3 3 3 3 3 2 2 2 2 2 2 2 2 1 1 1 1 1 1
6 6 6 6 6 6 6 5 5 5 5 5 5 5 4 4 4 4 4 4 3 3 3 3 3 3 3 2 2 2 2 2 2 2 2 1 1 1 1 1 1 1 0
6 6 6 5 5 5 5 5 5 5 5 5 4 4 4 4 4 3 3 3 3 3 3 3 3 2 2 2 2 2 1 1 1 1 1 1 1 1 0 0 0 0 0
5 5 5 5 5 5 5 4 4 4 4 4 4 4 3 3 3 3 3 3 3 3 2 2 2 2 2 2 2 1 1 1 1 1 1 0 0 0 0 -0 -0 -0 -0
5 5 5 5 5 4 4 4 4 4 4 4 3 3 3 3 3 3 3 2 2 2 2 2 2 2 2 2 1 1 1 1 1 1 0 0 -0 -0 -0 -1 -1 -1 -1
5 4 4 4 4 4 4 4 3 3 3 3 3 3 3 2 2 2 2 2 2 2 2 2 2 1 1 1 1 1 0 0 0 0 0 -0 -0 -0 -1 -1 -1 -1 -1
4 4 4 4 3 3 3 3 3 3 3 3 2 2 2 2 2 2 2 2 1 1 1 1 1 1 1 1 1 0 -0 -0 -0 -0 -0 -0 -1 -1 -1 -1 -1 -1 -2
3 3 3 3 3 3 2 2 2 2 2 2 2 2 2 1 1 1 1 1 1 1 1 1 0 0 0 0 0 -0 -0 -1 -1 -1 -1 -1 -1 -1 -1 -2 -2 -2 -2
3 3 2 2 2 2 2 2 2 2 2 1 1 1 1 1 1 1 1 1 1 0 0 0 0 0 -0 -0 -0 -0 -1 -1 -1 -1 -1 -2 -2 -2 -2 -2 -2 -2 -2
2 2 2 2 2 2 2 2 1 1 1 1 1 1 1 1 1 1 1 0 0 -0 -0 -0 -0 -0 -0 -0 -1 -1 -1 -1 -2 -2 -2 -2 -2 -2 -2 -2 -2 -2 -3
1 1 1 1 1 1 1 1 1 1 1 0 0 0 0 0 0 0 0 -0 -0 -0 -0 -0 -0 -1 -1 -1 -1 -1 -1 -2 -2 -2 -2 -2 -2 -2 -2 -3 -3 -3 -3
1 1 1 1 1 1 1 1 0 0 0 -0 -0 -0 -0 -0 -0 -1 -1 -1 -1 -1 -1 -1 -1 -1 -1 -1 -1 -2 -2 -2 -2 -3 -3 -3 -3 -3 -3 -3 -3 -3 -3
Wind_Speed
4 4 5 5 6 5 5 5 5 5 4 3 2 2 2 1 2 2 2 2 2 3 2 2 3 3 2 3 3 3 3 3 3 3 3 4 4 4 3 3 3 4 4
4 4 5 6 6 6 6 6 5 5 4 2 2 1 1 1 1 1 1 2 2 3 3 3 2 3 3 3 3 3 2 2 2 2 3 3 3 2 3 3 3 4 3
5 5 5 6 5 6 6 5 6 5 4 3 2 2 1 1 1 1 0 1 2 2 2 2 3 3 3 3 3 3 3 3 3 2 3 3 3 3 2 3 3 3 3
4 5 5 5 5 5 5 5 5 5 4 4 4 3 2 2 1 1 1 1 1 2 2 2 2 2 3 3 3 3 3 3 3 3 3 4 4 4 3 3 3 4 4
4 4 4 4 4 4 4 5 5 5 5 4 4 4 3 2 1 1 1 1 1 1 2 2 2 2 2 3 3 3 3 3 3 3 3 4 4 6 5 6 5 4 4
3 3 3 3 4 4 4 4 5 5 5 5 5 5 4 3 3 2 2 2 1 1 2 2 2 2 2 3 3 4 4 4 4 4 4 4 4 4 5 6 7 7 6
3 3 3 3 4 4 5 5 5 5 5 5 5 5 5 4 4 4 3 3 2 2 2 2 3 3 3 3 3 4 4 4 5 4 4 4 5 5 5 6 7 8 7
2 2 3 3 3 4 5 5 5 5 5 5 5 5 5 4 3 4 4 4 3 3 3 3 3 3 4 4 4 4 4 4 5 5 5 5 5 5 5 5 6 7 7
1 2 2 3 3 4 4 5 5 5 5 5 5 5 5 5 4 4 4 4 4 3 3 3 3 4 4 4 4 4 4 5 5 5 5 5 5 4 5 5 5 6 7
1 1 2 3 3 3 3 4 5 5 5 5 5 4 5 5 5 4 5 4 4 4 4 4 4 4 4 4 4 4 5 5 5 4 5 5 5 4 4 5 5 6 7
2 2 3 3 3 3 3 4 4 4 4 4 4 5 5 5 5 5 5 5 5 5 5 5 5 4 5 5 5 5 5 6 5 5 5 6 6 5 4 5 5 6 6
3 3 3 3 3 3 3 3 4 4 4 4 4 5 5 5 5 6 5 5 6 5 6 5 5 5 5 5 5 6 6 6 6 6 6 6 5 6 5 5 5 6 7
3 3 3 3 4 4 4 4 4 4 4 4 4 4 5 5 6 6 5 6 6 6 6 6 6 6 6 6 6 6 6 7 7 7 7 6 6 6 5 6 6 6 6
4 4 4 4 4 4 4 4 4 4 4 4 4 5 5 5 6 5 6 6 6 6 6 6 6 6 6 6 6 6 7 7 7 7 7 7 7 7 7 6 7 6 6
4 5 5 5 5 5 5 5 5 4 4 5 5 6 5 5 5 5 6 6 6 7 6 6 7 6 6 6 7 7 7 7 7 7 7 7 7 7 7 6 6 6 6
6 6 5 5 6 5 5 5 5 4 5 6 6 6 5 5 6 6 6 6 6 7 7 7 7 7 7 8 9 8 7 8 8 7 7 7 7 8 9 9 9 8 7
6 6 6 6 6 6 5 6 6 5 5 6 6 6 6 6 6 6 6 7 7 7 7 8 8 8 8 9 10 11 8 8 8 8 7 6 6 7 7 8 9 9 10
6 6 6 6 6 6 5 5 5 5 6 6 6 6 6 6 6 6 7 7 7 7 7 8 8 8 8 10 11 10 9 9 9 8 8 8 7 7 7 7 7 8 8
7 6 6 6 6 6 5 5 6 6 6 7 7 6 6 7 7 7 8 7 7 7 8 7 8 8 9 9 10 10 7 8 9 8 8 8 8 8 8 7 8 8 7
6 6 6 6 6 5 5 5 6 7 7 7 7 6 7 7 8 8 7 7 7 7 7 8 8 8 8 9 10 10 7 7 7 7 7 9 10 9 9 8 8 8 7
6 6 5 6 6 5 5 6 7 8 7 6 6 7 7 7 8 7 7 6 6 7 7 7 7 8 8 9 10 11 7 7 7 6 6 6 9 10 10 9 8 8 7
6 6 5 6 6 5 6 7 8 7 6 6 7 7 7 7 6 7 7 6 6 7 7 7 7 6 6 7 8 11 11 9 7 7 6 6 8 9 10 9 8 8 7
7 6 6 7 6 6 6 8 8 6 6 7 8 8 7 7 7 7 7 6 6 6 6 6 6 6 5 6 9 10 11 11 8 6 7 7 8 8 8 8 8 7 5
7 6 7 7 7 6 6 8 7 6 7 7 8 7 7 7 7 6 6 6 6 6 6 6 6 6 5 5 5 5 6 8 8 6 7 8 8 7 6 6 5 5 4
7 6 7 8 8 7 7 7 7 6 7 8 8 7 7 7 7 7 7 8 8 7 7 7 6 6 7 7 7 6 5 5 5 4 4 4 5 5 5 4 4 4 4
7 7 8 8 8 8 8 7 6 7 7 7 7 6 6 6 6 6 7 8 9 9 10 11 10 8 9 9 9 10 10 9 8 5 5 5 5 5 5 5 5 4 4
Wind_Direction
205 184 180 171 164 166 168 168 155 151 151 153 157 154 143 120 102 72 57 42 25 14 1 354 347 341 332 331 330 324 315 322 316 294 287 271 259 258 263 267 271 276 279
196 187 185 176 176 174 174 171 166 165 165 164 156 149 139 135 111 88 58 27 10 2 351 345 336 335 328 329 334 332 312 317 331 307 293 285 256 241 273 274 278 284 290
202 193 187 183 182 183 183 178 173 170 170 162 145 141 151 165 172 176 55 20 3 353 341 332 328 329 322 316 319 318 310 303 304 300 287 285 287 310 267 271 276 293 301
199 192 186 185 187 189 181 179 172 171 175 176 180 186 203 216 225 229 256 320 337 334 327 320 322 318 314 305 302 299 293 283 286 289 276 279 290 285 289 266 278 296 296
188 184 189 191 188 182 177 176 172 174 179 189 197 204 217 228 221 221 245 272 294 316 314 308 306 299 296 299 299 291 283 281 279 278 278 273 272 266 270 282 291 295 296
178 175 176 180 181 178 176 176 179 184 188 197 205 213 219 223 228 240 251 258 265 274 285 287 283 284 287 289 288 282 274 272 270 267 265 264 266 268 267 273 285 291 295
175 179 184 186 185 183 182 184 189 196 198 204 213 217 223 226 233 245 251 257 259 259 267 278 280 281 280 280 279 277 277 272 266 262 265 264 265 271 273 273 281 286 290
182 197 204 203 199 197 195 196 201 206 206 212 217 222 222 225 232 239 247 252 258 264 269 270 276 279 277 274 270 269 269 267 264 263 263 265 266 266 266 270 277 283 281
178 213 221 220 215 207 207 207 210 213 211 212 216 222 226 226 231 239 246 253 258 263 262 262 267 270 271 270 269 266 266 266 265 266 264 263 266 265 265 266 267 272 281
224 248 239 228 226 219 210 208 215 219 219 216 218 222 227 230 234 237 239 244 251 254 257 256 256 260 262 262 261 263 264 264 264 264 264 263 264 265 264 264 264 263 270
258 263 249 231 223 219 209 207 215 220 220 223 227 229 232 233 236 238 242 244 246 246 249 251 251 253 256 259 259 259 262 261 262 259 260 262 265 265 263 264 266 265 265
265 255 245 230 222 223 220 219 218 220 225 226 229 233 238 237 238 242 245 244 244 242 242 244 246 248 252 255 257 260 260 260 260 260 259 261 262 262 266 265 265 266 267
264 252 246 235 231 231 228 226 224 225 227 226 230 235 240 241 244 248 249 245 245 245 241 240 241 244 247 250 253 256 258 258 259 258 257 261 262 263 265 267 268 268 269
261 256 255 246 239 237 236 234 232 229 227 229 234 240 246 249 254 256 254 250 247 247 245 242 242 243 244 247 250 252 256 257 258 258 258 260 259 261 264 265 267 269 271
268 266 263 259 250 248 247 244 242 236 232 237 243 247 252 255 257 256 254 253 250 248 248 247 247 246 245 243 246 249 252 255 257 255 255 256 259 264 265 266 269 270 270
271 271 265 262 255 254 256 251 247 243 237 241 248 253 254 256 256 256 255 254 253 251 248 244 245 247 246 243 243 249 250 251 253 255 256 256 254 256 259 264 268 270 268
270 270 266 263 261 259 257 254 253 247 242 246 251 252 254 256 258 258 256 254 254 252 250 249 247 248 248 243 244 245 248 250 251 252 254 255 254 256 259 259 260 263 266
269 272 274 273 270 264 259 257 253 246 246 249 251 252 253 256 260 258 257 257 255 251 250 250 249 252 252 245 247 247 245 247 249 249 250 253 255 251 255 259 261 263 264
273 276 278 275 270 264 258 253 250 246 247 250 252 252 252 257 259 258 259 260 257 255 254 253 251 252 253 246 246 247 247 245 248 248 248 249 251 252 253 256 259 264 266
278 280 282 275 269 266 254 246 247 247 249 252 255 255 253 253 257 259 261 260 257 256 258 256 254 253 254 248 244 242 243 245 248 248 246 244 249 253 250 250 253 259 266
285 286 280 272 269 264 248 247 250 252 256 258 257 256 254 254 257 260 259 258 257 257 255 257 256 254 254 252 246 239 236 240 245 246 246 244 246 252 251 251 253 259 271
285 284 279 275 270 256 247 253 258 264 265 262 260 259 259 258 255 255 258 256 252 253 251 254 259 256 252 251 246 239 237 240 242 244 247 247 248 254 254 250 253 260 262
281 281 276 275 270 257 249 257 267 270 265 263 262 263 262 260 253 251 253 253 250 250 249 249 255 259 253 249 247 245 240 237 240 245 245 249 250 253 251 249 252 251 247
274 274 272 271 273 268 260 262 269 266 261 262 265 264 262 263 258 253 247 245 246 248 248 247 251 257 256 249 240 238 238 238 240 245 242 242 244 243 249 250 245 243 244
270 267 263 267 273 275 269 267 265 259 260 263 265 265 262 261 260 256 251 248 248 245 246 249 249 251 255 249 241 243 239 233 233 235 238 236 233 232 233 239 242 239 237
269 266 266 268 274 276 275 271 264 256 257 261 262 262 262 260 259 262 265 252 250 254 252 255 255 257 258 259 249 246 246 240 226 223 231 233 234 236 236 237 238 237 238
Height
1499 1501 1503 1504 1506 1508 1509 1510 1510 1512 1513 1515 1515 1516 1516 1516 1516 1516 1516 1515 1515 1515 1515 1514 1513 1512 1512 1511 1511 1510 1510 1509 1508 1507 1506 1505 1505 1504 1504 1504 1504 1504 1504
1498 1499 1501 1502 1504 1506 1507 1508 1509 1511 1512 1513 1514 1515 1515 1515 1515 1514 1514 1513 1513 1513 1512 1512 1511 1510 1510 1509 1508 1508 1507 1506 1506 1505 1504 1504 1503 1501 1501 1500 1500 1500 1500
1496 1497 1499 1501 1503 1504 1506 1507 1507 1509 1510 1512 1512 1513 1513 1513 1513 1513 1512 1512 1511 1511 1510 1510 1509 1508 1507 1507 1506 1505 1505 1504 1504 1503 1504 1503 1501 1499 1498 1497 1497 1497 1496
1495 1496 1497 1499 1501 1502 1504 1506 1507 1508 1509 1510 1511 1511 1512 1511 1511 1511 1510 1510 1509 1509 1508 1507 1506 1505 1504 1504 1503 1502 1502 1501 1501 1500 1500 1500 1499 1499 1496 1495 1494 1493 1493
1494 1494 1496 1497 1499 1501 1502 1504 1505 1506 1507 1508 1509 1509 1509 1509 1508 1508 1508 1507 1507 1506 1505 1504 1503 1502 1502 1501 1500 1499 1499 1498 1498 1497 1497 1496 1496 1495 1495 1492 1491 1490 1489
1493 1494 1495 1496 1498 1499 1500 1502 1503 1504 1505 1505 1506 1506 1506 1506 1506 1505 1505 1505 1504 1503 1502 1501 1500 1499 1498 1498 1497 1496 1496 1495 1494 1494 1493 1493 1492 1492 1491 1490 1488 1486 1485
1491 1492 1493 1495 1496 1497 1498 1499 1501 1502 1502 1503 1503 1503 1503 1503 1503 1503 1502 1501 1501 1500 1499 1498 1497 1496 1495 1494 1493 1493 1492 1491 1491 1490 1490 1489 1488 1488 1487 1487 1484 1483 1481
1490 1491 1492 1493 1494 1495 1496 1497 1498 1499 1500 1500 1500 1500 1500 1500 1500 1500 1499 1498 1497 1496 1495 1494 1493 1493 1492 1491 1490 1489 1488 1488 1487 1486 1486 1485 1484 1484 1483 1483 1482 1479 1478
1489 1490 1490 1491 1492 1493 1494 1494 1495 1496 1496 1497 1497 1497 1497 1496 1496 1496 1495 1494 1493 1492 1491 1490 1490 1489 1488 1487 1486 1485 1485 1484 1483 1482 1482 1481 1480 1479 1479 1479 1478 1478 1474
1487 1488 1488 1489 1489 1490 1491 1491 1492 1493 1493 1494 1493 1493 1493 1493 1492 1491 1491 1490 1489 1488 1487 1486 1486 1485 1484 1483 1482 1481 1481 1480 1479 1478 1478 1477 1476 1475 1474 1474 1473 1472 1471
1485 1486 1486 1487 1487 1488 1488 1488 1489 1489 1490 1490 1490 1489 1489 1489 1488 1487 1487 1486 1485 1484 1483 1482 1481 1480 1480 1479 1478 1477 1477 1476 1475 1474 1473 1472 1471 1470 1470 1469 1468 1467 1467
1483 1483 1484 1484 1484 1484 1485 1485 1485 1486 1486 1486 1486 1485 1485 1484 1484 1483 1482 1482 1481 1480 1479 1478 1477 1476 1476 1475 1474 1473 1472 1472 1471 1470 1469 1468 1467 1466 1465 1464 1463 1462 1462
1481 1481 1481 1481 1481 1481 1481 1482 1482 1482 1482 1482 1481 1481 1480 1480 1479 1479 1478 1477 1476 1475 1474 1473 1472 1472 1471 1470 1469 1469 1468 1467 1466 1465 1464 1463 1462 1461 1461 1460 1459 1458 1457
1478 1478 1478 1478 1478 1478 1478 1478 1478 1478 1478 1478 1477 1477 1476 1476 1475 1474 1473 1472 1471 1470 1469 1468 1468 1467 1466 1465 1465 1464 1463 1462 1461 1460 1459 1458 1458 1457 1456 1455 1455 1454 1452
1475 1475 1474 1474 1474 1474 1474 1474 1474 1474 1474 1474 1473 1472 1472 1471 1470 1469 1468 1468 1466 1465 1464 1463 1463 1462 1461 1460 1459 1458 1458 1457 1456 1455 1454 1454 1453 1452 1452 1451 1450 1449 1448
1472 1471 1471 1470 1470 1470 1470 1470 1469 1469 1469 1469 1469 1468 1467 1466 1465 1464 1463 1462 1461 1460 1459 1458 1457 1456 1455 1455 1454 1453 1452 1452 1451 1450 1449 1449 1448 1447 1447 1446 1446 1445 1444
1468 1468 1467 1467 1466 1466 1466 1465 1465 1465 1465 1464 1464 1463 1462 1461 1460 1459 1458 1457 1456 1455 1454 1453 1452 1451 1450 1449 1449 1448 1447 1446 1446 1445 1444 1444 1443 1443 1442 1441 1440 1440 1439
1465 1464 1464 1463 1463 1462 1461 1461 1460 1460 1460 1459 1458 1458 1457 1456 1455 1454 1452 1451 1450 1449 1448 1447 1446 1445 1444 1444 1443 1442 1441 1441 1440 1440 1439 1439 1438 1438 1437 1436 1435 1434 1433
1462 1461 1460 1460 1458 1458 1457 1456 1455 1455 1455 1454 1454 1453 1452 1451 1449 1448 1447 1446 1444 1443 1442 1441 1440 1439 1438 1438 1437 1437 1436 1435 1434 1434 1434 1433 1433 1433 1432 1431 1430 1429 1428
1458 1457 1456 1455 1454 1453 1452 1451 1451 1450 1450 1449 1449 1448 1447 1446 1445 1443 1442 1440 1439 1437 1436 1435 1434 1433 1432 1432 1431 1431 1430 1429 1429 1429 1428 1428 1428 1428 1427 1426 1425 1424 1423
1454 1453 1452 1451 1450 1449 1448 1447 1446 1446 1445 1445 1444 1443 1442 1441 1439 1438 1436 1435 1433 1432 1431 1430 1429 1428 1427 1426 1425 1424 1424 1424 1423 1423 1423 1423 1423 1423 1422 1421 1420 1419 1419
1450 1449 1448 1446 1446 1444 1443 1442 1442 1441 1440 1439 1438 1437 1436 1435 1434 1432 1431 1430 1428 1427 1426 1424 1423 1422 1421 1420 1419 1419 1419 1419 1418 1418 1418 1418 1418 1418 1417 1416 1416 1415 1414
1445 1444 1443 1442 1441 1440 1439 1438 1437 1436 1435 1434 1433 1432 1431 1429 1428 1427 1426 1424 1423 1422 1420 1419 1418 1417 1416 1415 1415 1414 1414 1414 1413 1413 1413 1413 1413 1413 1412 1412 1411 1411 1409
1440 1439 1438 1437 1436 1435 1434 1433 1432 1431 1429 1428 1427 1426 1425 1423 1422 1421 1420 1419 1418 1416 1415 1414 1413 1412 1411 1411 1410 1409 1409 1409 1409 1409 1408 1408 1408 1408 1407 1407 1406 1406 1405
1435 1434 1433 1432 1431 1430 1429 1428 1427 1425 1424 1423 1421 1420 1419 1418 1416 1415 1414 1413 1412 1411 1410 1409 1409 1408 1406 1406 1406 1405 1405 1404 1404 1404 1404 1404 1403 1403 1402 1402 1401 1401 1400
1430 1429 1427 1426 1425 1424 1423 1422 1421 1420 1418 1417 1415 1414 1413 1411 1410 1409 1408 1407 1406 1405 1405 1404 1403 1402 1402 1401 1401 1400 1400 1400 1400 1400 1399 1399 1398 1398 1398 1397 1396 1396 1395